Location: San Benedetto
(45.0333°N, 10.9167°E)
Time: 03:06:56
(UTC+00:00)

Daily predictions for brighter satellites

Satellite Brightness Start Highest point End
(mag) Time Altitude Azimuth Time Altitude Azimuth Time Altitude Azimuth
Cosmos 1825 2.0 00:13:02 66° SSE 00:13:27 76° E 00:17:14 10° NNE
Cosmos 540 Rocket 3.7 00:15:11 39° SSE 00:16:49 57° ESE 00:21:49 10° NNE
DELTA 2 R/B (1) 4.0 00:16:57 39° S 00:17:11 39° SSE 00:22:18 10° E
Cosmos 1408 3.0 00:19:18 46° W 00:19:36 48° WNW 00:23:12 10° N
NOSS 2-2 (E) 4.4 00:20:42 26° ESE 00:20:42 26° ESE 00:23:37 10° ENE
Cosmos 990 Rocket 4.0 00:15:54 10° NNW 00:21:02 63° WSW 00:22:37 42° SSW
SL-16 R/B 3.6 00:19:56 16° WSW 00:23:42 31° NW 00:28:43 10° N
Cosmos 405 Rocket 2.6 00:23:36 61° WSW 00:23:59 67° WNW 00:27:40 10° N
Cosmos 841 Rocket 3.7 00:23:03 37° SSE 00:24:51 57° ESE 00:29:54 10° NNE
Cosmos 1242 Rocket 3.6 00:21:30 10° N 00:24:57 41° ENE 00:26:09 30° ESE
Cosmos 2058 2.8 00:24:22 53° S 00:25:15 78° E 00:29:22 10° NNE
USA 229 DEB 3.8 00:22:35 26° SW 00:26:25 68° NW 00:33:17 10° NE
USA 229 3.8 00:22:43 26° SW 00:26:30 69° NW 00:33:23 10° NE
Cosmos 1656 Rocket 3.7 00:21:05 10° NNW 00:26:50 85° ENE 00:30:16 25° SSE
Cosmos 2221 2.6 00:22:37 10° N 00:26:56 69° E 00:28:24 39° SSE
X-37B 0.7 00:28:47 69° E 00:28:47 69° E 00:31:37 10° E
Nadezhda 4 Rocket 3.9 00:30:48 33° S 00:33:46 85° E 00:39:56 10° N
NOSS 2-2 (C) 4.3 00:34:05 27° ESE 00:34:12 27° ESE 00:37:17 10° ENE
Cosmos 1898 Rocket 3.5 00:29:11 10° NNW 00:34:21 61° WSW 00:36:11 38° S
Cosmos 1937 Rocket 3.4 00:29:21 10° NNW 00:34:42 83° WSW 00:37:19 31° SSE
NOSS 3-1 (C) 4.4 00:31:11 15° WSW 00:35:27 40° NW 00:41:30 10° NNE
YAOGAN 11 4.2 00:35:34 44° SSW 00:36:45 62° WSW 00:41:13 10° NNW
Cosmos 2369 Rocket 2.4 00:31:19 10° NW 00:36:52 53° WSW 00:38:58 35° SSW
Aureole 3 Rocket 3.8 00:34:45 10° N 00:38:38 51° E 00:41:59 20° SSE
USA 307 3.4 00:38:07 39° SSE 00:38:39 41° SE 00:42:40 10° ENE
SJ 16-02 3.3 00:37:41 10° WNW 00:40:01 15° W 00:40:01 15° W
CREW DRAGON DEMO-1 DEB 4.1 00:40:05 28° NNW 00:40:18 28° NNW 00:42:29 10° NE
ARGOS Delta rocket 4.3 00:38:34 10° NNE 00:44:05 70° E 00:46:49 30° S
NOSS 3-1 (A) 3.9 00:42:41 22° WSW 00:46:11 52° NW 00:52:26 10° NNE
ATLAS 5 CENTAUR R/B 2.0 00:48:04 35° SSE 00:49:00 42° ESE 00:53:03 10° NE
Cosmos 2263 4.3 00:45:01 10° NNW 00:50:33 56° WSW 00:53:06 31° S
CZ-4 R/B 4.1 00:47:07 10° N 00:51:40 54° WNW 00:53:33 32° SW
Helios 1B rocket 3.0 00:48:29 10° NNE 00:52:28 48° E 00:54:08 30° SSE
Cosmos 1814 Rocket 4.1 00:51:51 32° S 00:54:15 70° ESE 00:59:25 10° NNE
Cosmos 1633 2.7 00:53:22 42° SSE 00:54:18 61° E 00:57:48 10° NNE
USA 308 3.1 00:53:26 41° S 00:54:31 55° SE 00:58:41 10° ENE
ADEOS Rocket 4.1 00:47:33 10° SE 00:54:32 51° ENE 01:00:53 10° N
Cosmos 1932 4.5 00:49:58 10° NW 00:56:04 58° WSW 01:00:03 22° S
UNK 3.8 00:54:26 23° SSE 00:57:14 75° ENE 01:01:52 10° N
CZ-3B R/B 4.3 00:50:07 10° WNW 00:57:47 31° N 01:00:46 10° ENE
Helios 1A 3.7 01:00:06 33° SW 01:00:55 37° W 01:04:50 10° NNW
Cosmos 1606 2.6 00:59:08 10° NNW 01:02:58 74° W 01:04:12 40° S
Cosmos 1570 Rocket 4.0 01:01:44 31° SSW 01:04:19 84° ESE 01:09:34 10° NNE
SL-16 R/B 2.5 00:59:52 19° SSE 01:04:29 85° WSW 01:10:43 10° NNW
Cosmos 1933 4.3 01:04:29 10° N 01:08:26 45° ENE 01:11:43 14° SSE
Cosmos 372 Rocket 3.9 01:04:25 10° NNW 01:09:40 72° WSW 01:13:10 21° S
USA 290 2.1 01:11:15 49° SSW 01:12:00 85° ESE 01:15:14 10° NNE
USA 305 2.8 01:10:31 33° SW 01:12:20 81° SE 01:16:36 10° ENE
CZ-4C R/B 4.1 01:11:49 10° SE 01:14:39 16° ESE 01:17:46 10° ENE
Cosmos 1092 Rocket 3.9 01:11:05 25° SSW 01:14:49 79° W 01:21:00 10° N
Lacrosse 4 Rocket 1.4 01:11:52 10° NNW 01:15:58 78° ENE 01:20:00 10° SSE
Cosmos 2098 Rocket 4.0 01:15:09 26° SW 01:17:44 44° W 01:22:04 10° N
USA 267 4.4 01:19:18 20° SW 01:19:34 20° WSW 01:24:07 10° WNW
Cosmos 2208 Rocket 4.1 01:16:33 27° SSW 01:19:39 88° WNW 01:25:09 10° NNE
BREEZE-M R/B 2.6 01:18:11 30° SW 01:19:45 66° SSE 01:24:54 10° ENE
Meteor 2-19 Rocket 4.5 01:16:27 25° SSW 01:20:13 72° W 01:26:22 10° N
Resurs 1-4 Rocket 2.2 01:15:59 10° N 01:21:16 66° WNW 01:24:24 25° SSW
Cosmos 1437 Rocket 4.2 01:18:49 10° NW 01:21:47 21° W 01:22:18 21° WSW
OE (NEXTSAT) 4.4 01:22:34 16° W 01:25:10 74° N 01:28:37 10° E
Meteor 1-29 3.4 01:21:55 10° NNE 01:25:16 55° E 01:26:57 26° S
SL-4 R/B 3.7 01:23:33 10° NW 01:26:51 30° N 01:30:00 10° ENE
MINOTAUR 4 R/B 4.0 01:26:32 21° SSE 01:28:46 84° ENE 01:32:19 10° NNW
Landsat 4 4.0 01:27:22 10° NNE 01:31:08 62° ESE 01:33:22 22° S
NOSS 2-2 (D) 3.1 01:30:21 30° SW 01:31:52 69° NW 01:35:33 10° NE
NPP 3.8 01:27:05 10° N 01:32:27 67° WNW 01:35:57 22° SSW
ADEOS II 2.2 01:27:40 10° NNE 01:32:58 76° ESE 01:36:49 19° S
Cosmos 921 Rocket 3.9 01:32:38 22° WSW 01:34:43 36° WNW 01:38:37 10° N
USA 306 3.0 01:32:05 22° WSW 01:34:45 74° NNW 01:39:01 10° NE
Meteor 2-3 Rocket 3.8 01:31:29 18° S 01:35:41 79° E 01:41:17 10° NNE
Lacrosse 5 rocket 3.7 01:33:02 10° NNW 01:35:59 23° NNE 01:38:59 10° E
Cosmos 1943 4.4 01:33:25 14° WSW 01:37:27 32° NW 01:42:30 10° N
FALCON 9 DEB 3.0 01:34:17 10° WNW 01:37:39 63° SW 01:41:00 10° SE
CZ-2D R/B 2.6 01:34:56 10° N 01:39:55 47° WNW 01:43:15 20° SW
IRIDIUM 106 4.5 01:35:51 10° N 01:41:05 77° E 01:46:13 10° S
Alouette 2 Rocket 4.2 01:37:54 10° N 01:41:23 48° ENE 01:45:27 10° SSE
ASTEX 1 4.3 01:39:58 10° SSE 01:44:44 49° ENE 01:49:29 10° N
Cosmos 2151 3.3 01:44:56 23° SW 01:47:19 50° WNW 01:51:25 10° N
IDEFIX/ARIANE 42P 3.1 01:42:12 10° NNE 01:47:22 55° E 01:52:17 11° S
Cosmos 1809 Rocket 4.5 01:42:27 15° S 01:47:41 87° E 01:53:54 10° N
AQUA 4.2 01:47:25 10° N 01:52:02 50° WNW 01:55:17 19° SW
Cosmos 1437 4.3 01:53:58 10° NW 01:55:45 16° W 01:55:51 16° W
Meteor 1-26 Rocket 4.3 01:50:26 10° NNW 01:56:17 78° W 02:02:16 10° S
DELTA 2 R/B (1) 3.8 01:57:49 10° WSW 02:03:07 49° S 02:08:28 10° ESE
X-37B 0.6 02:01:55 10° W 02:05:02 58° SSW 02:08:10 10° ESE
CBERS-1 4.0 02:01:29 10° NNE 02:06:40 87° WNW 02:11:26 12° SSW
IRS-1D 3.6 02:01:45 10° N 02:06:53 70° WNW 02:11:14 14° SSW
BREEZE-M DEB (TANK) 2.3 02:04:54 10° WNW 02:07:09 49° NNE 02:09:49 10° E
Cosmos 1812 3.2 02:06:58 10° N 02:10:47 60° E 02:14:34 10° SSE
Cosmos 1553 Rocket 4.1 02:04:54 10° NNW 02:11:05 60° W 02:17:08 10° S
Cosmos 2292 Rocket 3.4 02:09:53 19° SW 02:11:35 35° WNW 02:14:21 10° N
SL-08 R/B 4.3 02:07:55 10° SE 02:12:24 49° ENE 02:17:00 10° N
CZ-2C R/B 4.4 02:11:16 10° NE 02:15:20 25° E 02:19:17 10° SSE
FALCON 9 DEB 3.2 02:13:29 10° NW 02:16:37 69° NNE 02:19:43 10° ESE
USA 281 3.2 02:10:13 10° SSE 02:16:48 83° WSW 02:23:26 10° NNW
S3M 4.0 02:11:01 10° N 02:17:12 79° W 02:23:24 10° S
GPS 2-04 Rocket1 4.1 02:15:43 15° SW 02:17:31 20° S 02:20:25 10° SE
Cosmos 1782 3.1 02:13:46 10° NNW 02:17:39 50° W 02:21:32 10° S
USA 307 3.8 02:14:32 10° W 02:18:37 44° NNW 02:22:43 10° NE
Meteor 2-21 Rocket 4.5 02:12:53 10° S 02:19:02 84° W 02:25:16 10° N
Cosmos 1271 Rocket 2.6 02:15:54 10° NNW 02:19:39 73° W 02:23:23 10° S
MSX 4.0 02:13:58 10° NNE 02:19:46 78° ESE 02:25:30 10° S
CZ-4C R/B 3.0 02:21:01 10° S 02:24:26 58° WSW 02:27:52 10° NNW
Helios 1B rocket 4.4 02:24:44 10° NNW 02:27:20 17° WNW 02:29:56 10° WSW
ERBS 2.2 02:24:39 14° SW 02:27:22 83° NW 02:30:38 10° NE
Cosmos 1328 Rocket 3.7 02:27:24 10° NNW 02:31:40 56° W 02:35:57 10° S
NOSS 3-2 (A) 4.3 02:25:11 10° NW 02:32:45 81° NE 02:41:21 10° SE
FALCON 9 DEB 2.8 02:30:29 10° WNW 02:33:32 61° SW 02:36:34 10° SE
ATLAS 5 CENTAUR R/B 3.1 02:30:19 10° W 02:33:46 26° NW 02:37:36 10° NNE
USA 308 4.1 02:30:40 10° W 02:34:38 38° NNW 02:38:39 10° NE
Cosmos 1743 Rocket 4.4 02:30:33 10° SSE 02:34:47 51° E 02:39:04 10° NNE
SeaSat 1 2.5 02:31:01 10° NNE 02:35:58 88° WNW 02:40:53 10° SSW
Meteor 1-10 Rocket 4.4 02:31:58 10° N 02:37:53 83° E 02:43:39 10° SSE
ADEOS Rocket 4.1 02:33:40 10° SSW 02:40:09 33° W 02:46:08 10° NNW
FALCON 9 DEB 2.8 02:37:19 10° WNW 02:40:25 69° SW 02:43:31 10° SE
Meteor 2-6 Rocket 4.3 02:34:46 10° NNW 02:40:40 73° W 02:46:22 10° S
FALCON 9 DEB 2.9 02:40:46 10° WNW 02:43:48 52° SW 02:46:47 10° SE
ALOS 4.2 02:40:06 10° NE 02:44:08 28° E 02:48:07 10° SSE
Cosmos 1980 Rocket 4.3 02:40:56 10° N 02:45:57 32° NE 02:50:57 10° ESE
Cosmos 1833 Rocket 3.2 02:41:59 10° S 02:47:31 60° ESE 02:53:05 10° NNE
SL-16 R/B 4.2 02:45:56 10° WSW 02:48:57 14° W 02:51:59 10° WNW
Cosmos 2228 Rocket 4.0 02:45:23 10° N 02:49:49 52° ENE 02:54:10 10° SSE
IRS-P3 4.3 02:46:13 10° N 02:51:29 63° WNW 02:56:43 10° SSW
Tianhe-1 2.9 02:50:05 10° SSW 02:52:28 20° SSE 02:54:52 10° ESE
USA 305 4.4 02:48:48 10° W 02:52:38 31° NNW 02:56:28 10° NE
Meteor 1-27 Rocket 4.1 02:48:21 10° N 02:53:57 70° ENE 02:59:25 10° SSE
Cosmos 1151 Rocket 4.2 02:51:41 10° NW 02:55:07 24° W 02:58:33 10° SW
Cosmos 2266 Rocket 4.2 02:50:28 10° SSW 02:56:25 53° WNW 03:02:20 10° N
